Letecké školy

Flying Academy USA

Flying Academy USA

Miami, FL & Los Angeles, CA

Flying Academy ČR

Flying Academy ČR

Praha & Brno, Česká Republika

Letecká škola Flying Academy

Letecká škola Flying Academy má více než 12 let zkušeností s výcvikem profesionálních pilotů v Evropě a přes 30 let v USA. Jsme jednou z nejdynamičtěji rostoucích leteckých škol poskytujících vysoký standard leteckého výcviku v prostředí simulujícím atmosféru v aeroliniích.

  • Flying Academy je EASA certifikovaná výcviková organizace (CZ/ATO-014) a FAA certifikovaná letecká škola podle Part 141 & 61, působíme v České Republice a v USA
  • Naši instruktoři jsou současně i piloty aerolinií – získáte reálné zkušenosti pilota
  • Dostanete zdarma iPad mini při zahájení ab-initio výcvikového programu
  • Naše výcvikové kurzy jsou navrženy pro budoucí EASA a FAA soukromé a komerční piloty

Vítejte ve světě, kde práce je náš koníček! Každý v našem týmu ve Flying Academy se těší z úspěchů našich studentů. Diky skvělému zázemí, přístupu a nabídce naší letecké školy se ujistíte, že jste na správném místě k dosažení Vašich snů ve Flying Academy.

Proč si vybrat Flying Academy - přečtěte si více >>

 

Novinky

více článků

0 - 500 hodin

Flying Academy s.r.o.
Beranových 130
Praha 9 - Letnany
199 00

800 884 888

+420 228 882 444

www.flyingacademy.cz
pilot@FlyingAcademy.cz

facebook.com/FlyingAcademy
twitter.com/FlyingAcademy
youtube.com/FlyingAcademy

Aktuální počasí

LKTB

LKTB 170100Z 13004KT 9999 OVC014 M02/M04 Q1019 NOSIG

LKPR

LKPR 170100Z 16004KT 9999 BKN010 OVC017 M02/M03 Q1016 R24/29//95 R30/590195 NOSIG

LKKV

LKKV 170100Z 00000KT 0500 R29/0750 FZFG VV002 M03/M03 Q1014 R29///////

KTMB

KTMB 170053Z 27007KT 10SM FEW060 19/17 A3012 RMK AO2 SLP197 T01940167

Začněte program 0-1500 a získejte 1500 letových hodin s Flying Academy Získejte více informací